Location: Aalsum
(53.3404°N, 6.0062°E)
Time: 00:45:27
(UTC+00:00)

SL-08 R/B - Pass Details

Date: 28 January 2023
Orbit: 947 x 992 km, 83.0° (Epoch: 20 March)

Event Time Altitude Azimuth Distance (km) Brightness Sun altitude
Rises 19:02:49 0° 348° (NNW) 3,660 7.7 -25.4°
Reaches altitude 10° 19:05:19 10° 348° (NNW) 2,716 7.0 -25.8°
Maximum altitude 19:11:33 84° 263° (W) 985 4.4 -26.7°
Enters shadow 19:17:42 11° 175° (S) 2,685 6.7 -27.6°
